World > North America > United States > New York
Hourly Weather in Speculator, New YorkSpeculator, New York Hourly Weather

Speculator, NY Hourly Weather

Hourly Weather Speculator, New YorkHourly Weather in Speculator, NY
Lat: 43.58N, Lon: 74.38W  ICAO: KGFL
Web Search
Speculator Weather Warning NWS WEATHER ALERT FOR THE SPECULATOR, NY AREA - WIND CHILL ADVISORY Issued: 352 PM EST Fri Jan 28 2022 Speculator Weather Warning  

Helpful Tip: Abbreviated, 7 Day, 14 Day Forecasts. There is a weather forecast for every taste.

Feedback

Speculator Hourly Weather

36 Hour Weather Scroll   °F Click to change Speculator hourly weather to Imperial units.Click to change Speculator hourly weather to Metric units. °C
Currently, Hazy, temperature is 17°F-8°C, dew point 11°F-12°C, humidity 77%. Wind direction is ENE at 9 mph14 km/h with visibility of 5.00 mi8 km. Barometric pressure is 30.18 in1022 mb.

Jan 28
4:00 PM

Jan 28
5:00 PM

Jan 28
6:00 PM

Jan 28
7:00 PM

Jan 28
8:00 PM

Jan 28
9:00 PM

Jan 28
10:00 PM

Jan 28
11:00 PM

Jan 29
MIDNIGHT

Jan 29
1:00 AM

Jan 29
2:00 AM

Jan 29
3:00 AM

Jan 29
4:00 AM

Jan 29
5:00 AM

Jan 29
6:00 AM

Jan 29
7:00 AM

Jan 29
8:00 AM

Jan 29
9:00 AM

Jan 29
10:00 AM

Jan 29
11:00 AM

Jan 29
NOON

Jan 29
1:00 PM

Jan 29
2:00 PM

Jan 29
3:00 PM

Jan 29
4:00 PM

Jan 29
5:00 PM

Jan 29
6:00 PM

Jan 29
7:00 PM

Jan 29
8:00 PM

Jan 29
9:00 PM

Jan 29
10:00 PM

Jan 29
11:00 PM

Jan 30
MIDNIGHT

Jan 30
1:00 AM

Jan 30
2:00 AM

Jan 30
3:00 AM
Cloudy Cloudy Cloudy Cloudy Cloudy Cloudy Cloudy Cloudy Cloudy Cloudy Cloudy Cloudy Cloudy Cloudy Cloudy Cloudy Cloudy Cloudy Cloudy Cloudy Cloudy Cloudy Cloudy Cloudy Cloudy Cloudy Cloudy Cloudy Cloudy Mostly Cloudy Mostly Cloudy Mostly Cloudy Mostly Clear Mostly Clear Mostly Clear Clear
Cloudy Cloudy Cloudy Cloudy Cloudy Cloudy Cloudy Cloudy Cloudy Cloudy Cloudy Cloudy Cloudy Cloudy Cloudy Cloudy Cloudy Cloudy Cloudy Cloudy Cloudy Cloudy Cloudy Cloudy Cloudy Cloudy Cloudy Cloudy Cloudy Mostly Cloudy Mostly Cloudy Mostly Cloudy Mostly Clear Mostly Clear Mostly Clear Clear
24°F-4°C 22°F-6°C 19°F-7°C 17°F-8°C 16°F-9°C 14°F-10°C 13°F-11°C 12°F-11°C 12°F-11°C 11°F-12°C 10°F-12°C 10°F-12°C 9°F-13°C 8°F-13°C 8°F-13°C 7°F-14°C 7°F-14°C 8°F-13°C 8°F-13°C 9°F-13°C 10°F-12°C 11°F-12°C 11°F-12°C 12°F-11°C 12°F-11°C 11°F-12°C 9°F-13°C 8°F-13°C 8°F-13°C 7°F-14°C 7°F-14°C 6°F-14°C 5°F-15°C 4°F-16°C 3°F-16°C 1°F-17°C
Snow Snow Snow Snow - - - - - - - - - - - - Snow Snow Snow Snow Snow Snow Snow Snow Snow Snow Snow Snow - - - - - - - -
35% 35% 35% 35% 9% 9% 9% 9% 9% 9% 15% 15% 15% 15% 15% 15% 31% 31% 31% 31% 31% 31% 23% 23% 23% 23% 23% 23% 13% 13% 13% 13% 13% 13% 0% 0%
11°F-12°C 10°F-12°C 9°F-13°C 8°F-13°C 6°F-14°C 5°F-15°C 3°F-16°C 2°F-17°C 1°F-17°C °F-18°C -1°F-18°C -2°F-19°C -1°F-18°C -3°F-19°C -3°F-19°C -3°F-19°C -5°F-21°C -5°F-21°C -5°F-21°C -6°F-21°C -5°F-21°C -4°F-20°C -5°F-21°C -6°F-21°C -5°F-21°C -6°F-21°C -7°F-22°C -6°F-21°C -7°F-22°C -7°F-22°C -6°F-21°C -8°F-22°C -8°F-22°C -8°F-22°C -10°F-23°C -10°F-23°C
57% 59% 64% 67% 64% 67% 64% 63% 61% 60% 60% 57% 63% 60% 60% 63% 57% 54% 54% 50% 50% 50% 48% 43% 45% 45% 47% 52% 49% 52% 54% 51% 54% 56% 54% 59%
NE NE NNE N SE SSW N N N N N N N N N N SSW SE N N N N N N N SE SSW N NNW NNW NNW NW NW NW NW NW
5 mph 5 mph 4 mph 4 mph 4 mph 4 mph 4 mph 4 mph 5 mph 5 mph 5 mph 8 mph 8 mph 8 mph 8 mph 8 mph 8 mph 11 mph 11 mph 11 mph 14 mph 14 mph 14 mph 15 mph 15 mph 15 mph 15 mph 15 mph 15 mph 15 mph 15 mph 15 mph 10 mph 10 mph 10 mph 8 mph
10 mi16 km 10 mi16 km 10 mi16 km 10 mi16 km 10 mi16 km 10 mi16 km 10 mi16 km 10 mi16 km 10 mi16 km 10 mi16 km 10 mi16 km 10 mi16 km 10 mi16 km 10 mi16 km 10 mi16 km 10 mi16 km 10 mi16 km 10 mi16 km 10 mi16 km 10 mi16 km 10 mi16 km 10 mi16 km 10 mi16 km 10 mi16 km 10 mi16 km 10 mi16 km 10 mi16 km 10 mi16 km 10 mi16 km 10 mi16 km 10 mi16 km 10 mi16 km 10 mi16 km 10 mi16 km 10 mi16 km 10 mi16 km
Hour (EST)
Weather
Clouds
Temperature
Precip. Type
POP
Dewpoint
Humidity
Wind Direction
Wind Speed
Visibility
POP = Probability of Precipitation. ** Indicates missing data/values from model statistics.

24 Hour Forecast

Tonight - Mostly cloudy. Much colder with lows around 5 below. North winds around 5 mph.
Saturday - Mostly cloudy. Colder with highs around 8 above. North winds 5 to 10 mph. Wind chill values as low as 13 below.

48 Hour Forecast API Feed


Fri, Jan 28
4:00 pm

Fri, Jan 28
5:00 pm

Fri, Jan 28
6:00 pm

Fri, Jan 28
7:00 pm

Fri, Jan 28
8:00 pm

Fri, Jan 28
9:00 pm

Fri, Jan 28
10:00 pm

Fri, Jan 28
11:00 pm

Sat, Jan 29
Midnight

Sat, Jan 29
1:00 am

Sat, Jan 29
2:00 am

Sat, Jan 29
3:00 am

Sat, Jan 29
4:00 am

Sat, Jan 29
5:00 am

Sat, Jan 29
6:00 am

Sat, Jan 29
7:00 am

Sat, Jan 29
8:00 am

Sat, Jan 29
9:00 am

Sat, Jan 29
10:00 am

Sat, Jan 29
11:00 am

Sat, Jan 29
Noon

Sat, Jan 29
1:00 pm

Sat, Jan 29
2:00 pm

Sat, Jan 29
3:00 pm

Sat, Jan 29
4:00 pm

Sat, Jan 29
5:00 pm

Sat, Jan 29
6:00 pm

Sat, Jan 29
7:00 pm

Sat, Jan 29
8:00 pm

Sat, Jan 29
9:00 pm

Sat, Jan 29
10:00 pm

Sat, Jan 29
11:00 pm

Sun, Jan 30
Midnight

Sun, Jan 30
1:00 am

Sun, Jan 30
2:00 am

Sun, Jan 30
3:00 am

Sun, Jan 30
4:00 am

Sun, Jan 30
5:00 am

Sun, Jan 30
6:00 am

Sun, Jan 30
7:00 am

Sun, Jan 30
8:00 am

Sun, Jan 30
9:00 am

Sun, Jan 30
10:00 am

Sun, Jan 30
11:00 am

Sun, Jan 30
Noon

Sun, Jan 30
1:00 pm

Sun, Jan 30
2:00 pm

Sun, Jan 30
3:00 pm
OvercastPatchy Light SnowMistLight SnowFreezing FogFreezing FogFreezing FogLight SnowFreezing FogFreezing FogFreezing FogMistMistOvercastOvercastOvercastOvercastOvercastOvercastOvercastOvercastOvercastOvercastPartly CloudyOvercastOvercastPartly CloudyPartly CloudyClearPartly CloudyPartly CloudyPartly CloudyClearClearClearPartly CloudyPartly CloudyPartly CloudyClearPartly CloudyPartly CloudyPartly CloudySunnyPartly CloudyOvercastOvercastOvercastOvercast
Overcast Patchy light snow Mist Light snow Freezing fog Freezing fog Freezing fog Light snow Freezing fog Freezing fog Freezing fog Mist Mist Overcast Overcast Overcast Overcast Overcast Overcast Overcast Overcast Overcast Overcast Partly cloudy Overcast Overcast Partly cloudy Partly cloudy Clear Partly cloudy Partly cloudy Partly cloudy Clear Clear Clear Partly cloudy Partly cloudy Partly cloudy Clear Partly cloudy Partly cloudy Partly cloudy Sunny Partly cloudy Overcast Overcast Overcast Overcast
21°F
-6°C
19°F
-7°C
14°F
-10°C
10°F
-13°C
8°F
-14°C
7°F
-14°C
5°F
-15°C
2°F
-17°C
-1°F
-18°C
-1°F
-18°C
-1°F
-18°C
1°F
-17°C
2°F
-17°C
2°F
-16°C
3°F
-16°C
4°F
-16°C
4°F
-16°C
3°F
-16°C
4°F
-15°C
6°F
-14°C
8°F
-13°C
10°F
-12°C
12°F
-11°C
11°F
-12°C
9°F
-13°C
5°F
-15°C
2°F
-17°C
1°F
-17°C
0°F
-18°C
1°F
-18°C
1°F
-17°C
1°F
-17°C
-0°F
-18°C
-1°F
-19°C
-2°F
-19°C
-4°F
-20°C
-5°F
-20°C
-5°F
-21°C
-6°F
-21°C
-8°F
-22°C
-9°F
-23°C
-7°F
-21°C
0°F
-18°C
5°F
-15°C
8°F
-13°C
10°F
-12°C
12°F
-11°C
13°F
-11°C
15°F
-10°C
15°F
-9°C
13°F
-11°C
9°F
-13°C
7°F
-14°C
7°F
-14°C
5°F
-15°C
2°F
-17°C
-1°F
-19°C
-1°F
-18°C
-1°F
-18°C
0°F
-18°C
1°F
-17°C
1°F
-17°C
1°F
-17°C
1°F
-17°C
1°F
-17°C
-1°F
-18°C
-2°F
-19°C
-3°F
-19°C
-1°F
-19°C
0°F
-18°C
2°F
-17°C
2°F
-17°C
2°F
-17°C
-0°F
-18°C
-3°F
-20°C
-5°F
-21°C
-6°F
-21°C
-3°F
-19°C
-1°F
-19°C
-2°F
-19°C
-3°F
-19°C
-4°F
-20°C
-5°F
-20°C
-5°F
-21°C
-6°F
-21°C
-7°F
-22°C
-8°F
-22°C
-9°F
-23°C
-10°F
-23°C
-8°F
-22°C
-5°F
-20°C
-3°F
-19°C
1°F
-17°C
3°F
-16°C
5°F
-15°C
6°F
-15°C
30.12 in
1020 mb
30.12 in
1020 mb
30.15 in
1021 mb
30.21 in
1023 mb
30.21 in
1023 mb
30.24 in
1024 mb
30.24 in
1024 mb
30.24 in
1024 mb
30.24 in
1024 mb
30.27 in
1025 mb
30.24 in
1024 mb
30.18 in
1022 mb
30.15 in
1021 mb
30.12 in
1020 mb
30.06 in
1018 mb
30.06 in
1018 mb
30.03 in
1017 mb
30 in
1016 mb
29.97 in
1015 mb
29.94 in
1014 mb
29.94 in
1014 mb
29.88 in
1012 mb
29.8 in
1009 mb
29.8 in
1009 mb
29.8 in
1009 mb
29.8 in
1009 mb
29.83 in
1010 mb
29.83 in
1010 mb
29.85 in
1011 mb
29.83 in
1010 mb
29.83 in
1010 mb
29.83 in
1010 mb
29.83 in
1010 mb
29.83 in
1010 mb
29.83 in
1010 mb
29.85 in
1011 mb
29.88 in
1012 mb
29.88 in
1012 mb
29.91 in
1013 mb
29.94 in
1014 mb
29.97 in
1015 mb
29.97 in
1015 mb
29.97 in
1015 mb
29.97 in
1015 mb
29.94 in
1014 mb
29.94 in
1014 mb
29.94 in
1014 mb
29.94 in
1014 mb
77%84%95%97%98%98%98%99%99%99%99%97%94%92%90%90%87%84%73%67%64%64%63%66%73%77%78%75%75%85%88%88%87%88%88%92%93%92%91%93%94%92%79%70%71%73%73%74%
WNWNWNNWNNNNNENNENNENENNENNENNNNENNNNNNENNWNNWNNNWNNWNNWNNWNNWNNWNNWNNWNWNWNWWNWWNWWNWWNWWNWWNWWNWWNWWNWWNWWNWWNWWNW
3 mph
5 km/h
3 mph
5 km/h
2 mph
4 km/h
3 mph
4 km/h
3 mph
5 km/h
4 mph
6 km/h
3 mph
5 km/h
4 mph
6 km/h
4 mph
6 km/h
3 mph
5 km/h
4 mph
6 km/h
4 mph
6 km/h
4 mph
6 km/h
5 mph
8 km/h
4 mph
6 km/h
4 mph
7 km/h
5 mph
9 km/h
5 mph
8 km/h
5 mph
8 km/h
6 mph
10 km/h
7 mph
11 km/h
8 mph
13 km/h
9 mph
14 km/h
11 mph
17 km/h
10 mph
16 km/h
10 mph
15 km/h
11 mph
17 km/h
12 mph
19 km/h
13 mph
21 km/h
13 mph
22 km/h
13 mph
21 km/h
11 mph
18 km/h
10 mph
16 km/h
9 mph
15 km/h
8 mph
13 km/h
7 mph
11 km/h
7 mph
11 km/h
7 mph
11 km/h
6 mph
10 km/h
5 mph
9 km/h
5 mph
8 km/h
5 mph
8 km/h
6 mph
9 km/h
6 mph
10 km/h
8 mph
13 km/h
10 mph
15 km/h
11 mph
17 km/h
11 mph
18 km/h
0%0%0%0%0%0%0%0%0%0%0%0%0%0%0%0%0%0%0%0%0%0%0%0%0%0%0%0%0%0%0%0%0%0%0%0%0%0%0%0%0%0%0%0%0%0%0%0%
6 mi
10 km
6 mi
10 km
1 mi
2 km
6 mi
10 km
0 mi
0 km
0 mi
0 km
0 mi
0 km
6 mi
10 km
0 mi
0 km
0 mi
0 km
0 mi
0 km
1 mi
2 km
1 mi
2 km
6 mi
10 km
6 mi
10 km
6 mi
10 km
6 mi
10 km
6 mi
10 km
6 mi
10 km
6 mi
10 km
6 mi
10 km
6 mi
10 km
6 mi
10 km
6 mi
10 km
6 mi
10 km
6 mi
10 km
6 mi
10 km
6 mi
10 km
6 mi
10 km
6 mi
10 km
6 mi
10 km
6 mi
10 km
6 mi
10 km
6 mi
10 km
6 mi
10 km
6 mi
10 km
6 mi
10 km
6 mi
10 km
6 mi
10 km
6 mi
10 km
6 mi
10 km
6 mi
10 km
6 mi
10 km
6 mi
10 km
6 mi
10 km
6 mi
10 km
6 mi
10 km
6 mi
10 km

Day/Time
Weather
Condition
Temperature
Dew Point
Pressure
Humidity
Wind Direction
Wind Speed
Prob Precip %
Visibility
Prob Precip % = Probability of Precipitation.